This is the latest recevied weather packets stored in our database for station/object IK6ZNK-3. If no packets are shown the sender has not sent any weather packets the latest 10 day(s).
| Time | Temp. | Humidity | Pressure | Rain* | Wind** | Luminosity | Snow |
|---|---|---|---|---|---|---|---|
| 1778064009 | 21.11° C | 72% | 1004.7 hPa | 0 mm | - | - | - |
| 1778063411 | 20° C | 73% | 1004.7 hPa | 0 mm | - | - | - |
| 1778062807 | 19.44° C | 71% | 1004.6 hPa | 0 mm | - | - | - |
| 1778062208 | 18.89° C | 75% | 1004.8 hPa | 0 mm | - | - | - |
| 1778061609 | 18.33° C | 76% | 1004.9 hPa | 0 mm | - | - | - |
| 1778061007 | 18.89° C | 75% | 1005.2 hPa | 0 mm | - | - | - |
| 1778060412 | 18.89° C | 74% | 1005.2 hPa | 0 mm | - | - | - |
| 1778059810 | 18.89° C | 74% | 1005 hPa | 0 mm | - | - | - |
| 1778059208 | 19.44° C | 73% | 1004.8 hPa | 0 mm | - | - | - |
| 1778058611 | 19.44° C | 72% | 1004.7 hPa | 0 mm | - | - | - |
| 1778058008 | 19.44° C | 72% | 1004.9 hPa | 0 mm | - | - | - |
| 1778057408 | 18.89° C | 74% | 1004.9 hPa | 0 mm | - | - | - |
| 1778056811 | 19.44° C | 73% | 1004.7 hPa | 0 mm | - | - | - |
| 1778056208 | 19.44° C | 71% | 1004.5 hPa | 0 mm | - | - | - |
| 1778055608 | 19.44° C | 70% | 1004.7 hPa | 0 mm | - | - | - |
| 1778055008 | 20° C | 69% | 1004.9 hPa | 0 mm | - | - | - |
| 1778054408 | 20° C | 65% | 1005 hPa | 0 mm | - | - | - |
| 1778053808 | 20° C | 65% | 1004.9 hPa | 0 mm | - | - | - |
| 1778053209 | 20° C | 67% | 1005 hPa | 0 mm | - | - | - |
| 1778051407 | 18.33° C | 70% | 1005 hPa | 0 mm | - | - | - |
| 1778050809 | 18.89° C | 73% | 1005.2 hPa | 0 mm | - | - | - |
| 1778050206 | 17.78° C | 72% | 1005.1 hPa | 0 mm | - | - | - |
| 1778049606 | 17.78° C | 73% | 1005.2 hPa | 0 mm | - | - | - |
| 1778049007 | 17.22° C | 73% | 1005.2 hPa | 0 mm | - | - | - |
| 1778048407 | 16.67° C | 75% | 1005.1 hPa | 0 mm | - | - | - |
* Rain latest hour (hover to see other rain measurements)
** Current wind speed in m/s (hover to see current wind gust speed)